Location: Byszew
(52.1813°N, 19.2693°E)
Time: 22:55:12
(UTC+00:00)

Cosmos 2322 Rocket - Pass Details

Date: 27 June 2021
Orbit: 833 x 850 km, 71.0° (Epoch: 26 July)

Event Time Altitude Azimuth Distance (km) Brightness Sun altitude
Rises 00:35:16 0° 328° (NNW) 3,425 5.8 -10.8°
Reaches altitude 10° 00:38:22 10° 344° (NNW) 2,485 5.4 -10.6°
Maximum altitude 00:42:38 21° 32° (NNE) 1,822 5.1 -10.3°
Drops below altitude 10° 00:46:51 10° 81° (E) 2,469 5.2 -10.0°
Sets 00:49:55 0° 97° (E) 3,398 5.6 -9.8°
